DELTA 1 DEB

Satellite information

Favourite Embed

Satellite Type and Status

DEBRISIN ORBIT

Key statistics

Satellite DELTA 1 DEB at a glance.

Uptime

17400

Days in orbit

Revolutions

≈ 14.4

Per day

Orbit

SSO

Sun Synchronous Orbit

Inclination

98.7

Latest

Satellite identification and parameters

Extended collection of information and parameters for DELTA 1 DEB.

Object identification

Identified? True

Debris? True

Object name: DELTA 1 DEB

International designator: 1978-026EZ

Object number (NORAD): 13562

Object ID (CCSDS): 13562

Country: UNITED STATES OF AMERICA (US)

Current information (Y/N): Y

RCS size: SMALL

Orbital parameters

Period: 100.298 minutes

Inclination: 98.7249 deg

SMA: 7150.81 km

Apoapsis: 798.367 km

Periapsis: 746.983 km

RAAN: 323.2231 deg

Eccentricy: 0.00359285

Argument of periapsis: 62.6948 deg

Mean anomaly: 55.1725 deg

Mean motion: 14.35720538 rev/day

Mean motion (dot): 0.00001806 rev/day2

B* drag term: 0.00063614363 1/REarth

Two-line elements (TLE)

Creation date: Oct. 24, 2025, 2:48 a.m.

Reference frame: TEME

Reference center: EARTH

Epoch: Oct. 23, 2025, 4:10 p.m. UTC

TLE line 0: 0 DELTA 1 DEB

TLE line 1: 1 13562U 78026EZ 25296.67422229 .00001806 00000-0 63614-3 0 9996

TLE line 2: 2 13562 98.7249 323.2231 0035928 62.6948 55.1725 14.35720538320071

Live tracking on map

Real-time ground track for satellite DELTA 1 DEB.

In-orbit conjunctions

A list of the most updated potential collisions computed for object DELTA 1 DEB.

Target Orbit TCA Probability of collision Miss distance Type
ARIANE 40 R/B SSO 2025-09-12 19:51:58 0.0002277471 585.0 (m) ROCKET BODY
CZ-2D DEB SSO 2024-09-10 16:20:20 0.000140115 43.0 (m) DEBRIS

Associated space launch

Earth observation satellite

DELTA 1 DEB was lifted into orbit during the mission ‘Delta 2910 | Landsat 3’, on board a Delta 2910 space rocket.

The launch took place on March 5, 1978, 5:54 p.m. from Space Launch Complex 2W.

For more information about the launch, click the button.

Launch to space Delta 2910 | Landsat 3
Delta 2910 | Landsat 3

Agency: N/A

Status: Launch Successful

Launch date: March 5, 1978, 5:54 p.m. UTC

Rocket: Delta 2910

Launch pad: Space Launch Complex 2W

Location: Vandenberg SFB, CA, USA

...

Latest news about this satellite

There are no fresh news available about this satellite. Check back as we update our databases every day.


Newsletter sign-up

Weekly statistics, charts and insights to help you stay on top of the space industry.